Weather in Tsunta

Russia / Republic of Dagestan     42°12′08″N   45°56′06″E
temp.,
°C
wind,
m/s
gust,
m/s
humid.,
%
clouds,
%
prec.,
mm/h
press.,
hPa
HPBL,
m
13 may, thu
thu1300:00+2ese11615 0.0 102014
03:00+3se116413 0.0 101915
06:00+6se12595 0.0 101939
09:00+12ssw26444 0.0 10171838
12:00+14ssw354019 0.0 10172309
15:00+14sw233713 0.0 10172198
18:00+11ssw225810 0.1 101847
21:00+5sse118584 0.1 102213
14 may, fri
fri1400:00+5ese117581 0.0 102213
03:00+4se01632 0.0 102113
06:00+7se11601 0.0 102132
09:00+13ssw234910 0.0 10191117
12:00+14ssw334848 0.1 10181949
15:00+14ssw324831 0.4 10171661
18:00+10ssw236713 0.3 1019204
21:00+5s018729 0.6 102216
15 may, sat
sat1500:00+3s118810 0.0 102215
03:00+3s019311 0.0 102114
06:00+6ssw018510 0.0 102162
09:00+12ssw215511 0.0 1018872
12:00+15ssw334861 0.2 10161951
15:00+13sw116121 2.1 10161088
18:00+10sw228174 3.4 1017200
21:00+7s1296100 6.7 102093
16 may, sun
sun1600:00+4ssw229263 0.1 102019
03:00+3sse11832 0.1 101914
06:00+5s12700 0.0 101870
09:00+11ssw33460 0.0 1016820
12:00+14ssw33330 0.0 10141301
15:00+13ssw33330 0.0 10131266
18:00+10ssw23490 0.0 1014182
21:00+4s22564 0.0 101717
17 may, mon
mon1700:00+3ssw1159100 0.0 101717
03:00+3s11585 0.0 101516
06:00+6ssw1158100 0.0 101452
09:00+13ssw2344100 0.0 1011735
12:00+16ssw353322 0.0 10101980
15:00+16sw35325 0.0 10102165
18:00+13sw22517 0.0 101155
21:00+7s2272100 0.0 101412